User: anonymous   Login
Location: Unspecified
(0.0000°N, 0.0000°E)
Time: 05:58:13
(UTC+00:00)
Language:

PRISM - Orbit

View from above orbital plane
View from above orbital plane
View from above satellite
View from above satellite

Ground track
Ground track

The orbit data is extracted from the following two-line orbital elements,

1 33493U 09002B   20190.84262902 +.00000568 +00000-0 +54817-4 0  9996
2 33493 098.1446 132.0225 0014636 350.2144 009.8789 14.97062639622907
Epoch (UTC): 08 July 2020 20:13:23
Eccentricity: 0.0014636
inclination: 98.1446°
perigee height: 566 km
apogee height: 586 km
right ascension of ascending node: 132.0225°
argument of perigee: 350.2144°
revolutions per day: 14.97062639
mean anomaly at epoch: 9.8789°
orbit number at epoch: 62290

The dashed part of the orbit path shows where the satellite is in the earth's shadow,  

DLR